CEB56N VVDN-RPLL

Flight info

Callsign CEB56N
Flight time 2h 7m
Altitude 35000
Route CQ W2 PCA L628 MESOX/N0463F350 L628 ARESI/N0463F330 L628 GUKUM DCT LUBAN
Aircraft A321/M-SDE3FGHIRWY/LB1

Departure

Time 2026-04-22 07:10
Airport Da Nang International Airport (VVDN)

Arrival

Time 2026-04-22 09:17
Airport Ninoy Aquino International Airport (RPLL)
Time Latitude Longitude Altitude Speed Heading
2026-04-22 06:41 16.05593 108.20138 33 ft 0 kts 82°
2026-04-22 06:59 16.05591 108.20119 33 ft 4 kts 82°
2026-04-22 06:59 16.05587 108.20091 31 ft 4 kts 82°
2026-04-22 06:59 16.05583 108.20063 30 ft 4 kts 82°
2026-04-22 06:59 16.05579 108.20037 30 ft 2 kts 82°
2026-04-22 07:00 16.05579 108.20013 33 ft 4 kts 117°
2026-04-22 07:00 16.05595 108.20002 32 ft 4 kts 182°
2026-04-22 07:00 16.05619 108.20002 31 ft 1 kts 172°
2026-04-22 07:00 16.05620 108.20002 31 ft 0 kts 172°
2026-04-22 07:02 16.05619 108.20003 31 ft 2 kts 172°
2026-04-22 07:03 16.05566 108.20010 32 ft 13 kts 172°
2026-04-22 07:03 16.05457 108.20026 33 ft 16 kts 172°
2026-04-22 07:03 16.05350 108.20042 32 ft 15 kts 171°
2026-04-22 07:03 16.05250 108.20056 33 ft 14 kts 172°
2026-04-22 07:04 16.05157 108.20069 33 ft 13 kts 172°
2026-04-22 07:04 16.05069 108.20082 32 ft 12 kts 172°
2026-04-22 07:04 16.04982 108.20095 32 ft 15 kts 172°
2026-04-22 07:04 16.04842 108.20115 32 ft 25 kts 172°
2026-04-22 07:05 16.04663 108.20141 32 ft 26 kts 172°
2026-04-22 07:05 16.04489 108.20166 32 ft 25 kts 172°
2026-04-22 07:05 16.04322 108.20190 32 ft 24 kts 172°
2026-04-22 07:05 16.04164 108.20214 33 ft 22 kts 171°
2026-04-22 07:06 16.04014 108.20235 33 ft 21 kts 172°
2026-04-22 07:06 16.03871 108.20256 33 ft 20 kts 172°
2026-04-22 07:06 16.03736 108.20276 33 ft 19 kts 172°
2026-04-22 07:06 16.03605 108.20295 33 ft 19 kts 172°
2026-04-22 07:07 16.03480 108.20313 33 ft 18 kts 172°
2026-04-22 07:07 16.03359 108.20330 32 ft 17 kts 172°
2026-04-22 07:07 16.03241 108.20347 31 ft 17 kts 172°
2026-04-22 07:07 16.03137 108.20362 31 ft 12 kts 172°
2026-04-22 07:08 16.03081 108.20324 31 ft 10 kts 258°
2026-04-22 07:08 16.03071 108.20258 31 ft 9 kts 261°
2026-04-22 07:08 16.03102 108.20226 31 ft 6 kts 351°
2026-04-22 07:08 16.03106 108.20226 31 ft 1 kts 352°
2026-04-22 07:09 16.03231 108.20207 32 ft 50 kts 352°
2026-04-22 07:09 16.03802 108.20125 35 ft 113 kts 352°
2026-04-22 07:09 16.04756 108.19987 33 ft 162 kts 352°
2026-04-22 07:09 16.05980 108.19819 250 ft 181 kts 352°
2026-04-22 07:10 16.07212 108.19645 892 ft 177 kts 352°
2026-04-22 07:10 16.08432 108.19442 1424 ft 177 kts 352°
2026-04-22 07:10 16.09657 108.19231 1840 ft 183 kts 352°
2026-04-22 07:10 16.10979 108.19008 1986 ft 202 kts 352°
2026-04-22 07:11 16.12424 108.18767 2121 ft 218 kts 353°
2026-04-22 07:11 16.13976 108.18512 2239 ft 234 kts 353°
2026-04-22 07:11 16.15649 108.18238 2352 ft 254 kts 353°
2026-04-22 07:11 16.17431 108.17992 2674 ft 265 kts
2026-04-22 07:12 16.19194 108.18484 3225 ft 267 kts 34°
2026-04-22 07:12 16.20410 108.19935 3783 ft 272 kts 63°
2026-04-22 07:12 16.20961 108.21825 4350 ft 277 kts 86°
2026-04-22 07:12 16.20705 108.23813 4882 ft 282 kts 113°
2026-04-22 07:13 16.19619 108.25490 5445 ft 282 kts 140°
2026-04-22 07:13 16.17941 108.26510 6044 ft 280 kts 163°
2026-04-22 07:13 16.16092 108.27160 6665 ft 281 kts 163°
2026-04-22 07:13 16.14223 108.27810 7280 ft 284 kts 162°
2026-04-22 07:14 16.12369 108.28457 7872 ft 286 kts 163°
2026-04-22 07:14 16.10477 108.29121 8494 ft 287 kts 163°
2026-04-22 07:14 16.08580 108.29791 9113 ft 289 kts 163°
2026-04-22 07:14 16.06668 108.30468 9708 ft 291 kts 162°
2026-04-22 07:15 16.04735 108.31152 10065 ft 301 kts 162°
2026-04-22 07:15 16.02679 108.31878 10178 ft 319 kts 162°
2026-04-22 07:15 16.00517 108.32641 10303 ft 337 kts 162°
2026-04-22 07:15 15.98243 108.33442 10424 ft 353 kts 162°
2026-04-22 07:16 15.95917 108.34261 10765 ft 360 kts 162°
2026-04-22 07:16 15.93498 108.35116 11229 ft 364 kts 162°
2026-04-22 07:16 15.91119 108.35959 11698 ft 368 kts 162°
2026-04-22 07:16 15.88669 108.36824 12166 ft 372 kts 162°
2026-04-22 07:17 15.86202 108.37695 12659 ft 374 kts 162°
2026-04-22 07:17 15.83727 108.38570 13157 ft 377 kts 162°
2026-04-22 07:17 15.81269 108.39438 13633 ft 380 kts 162°
2026-04-22 07:17 15.78748 108.40329 14054 ft 383 kts 162°
2026-04-22 07:18 15.76218 108.41224 14476 ft 385 kts 162°
2026-04-22 07:18 15.73669 108.42121 14892 ft 388 kts 162°
2026-04-22 07:18 15.71093 108.43028 15293 ft 391 kts 162°
2026-04-22 07:18 15.68506 108.43939 15687 ft 394 kts 162°
2026-04-22 07:19 15.65894 108.44857 16080 ft 397 kts 162°
2026-04-22 07:19 15.63299 108.45768 16457 ft 400 kts 162°
2026-04-22 07:19 15.60654 108.46698 16845 ft 403 kts 162°
2026-04-22 07:19 15.57994 108.47635 17222 ft 405 kts 162°
2026-04-22 07:20 15.55309 108.48579 17584 ft 408 kts 162°
2026-04-22 07:20 15.52601 108.49532 17960 ft 411 kts 162°
2026-04-22 07:20 15.49882 108.50488 18281 ft 413 kts 162°
2026-04-22 07:20 15.47187 108.51434 18594 ft 415 kts 161°
2026-04-22 07:21 15.44448 108.52396 18902 ft 417 kts 161°
2026-04-22 07:21 15.41685 108.53365 19211 ft 419 kts 161°
2026-04-22 07:21 15.38915 108.54335 19502 ft 421 kts 161°
2026-04-22 07:21 15.36124 108.55314 19784 ft 424 kts 161°
2026-04-22 07:22 15.33320 108.56300 20101 ft 425 kts 161°
2026-04-22 07:22 15.30545 108.57277 20379 ft 428 kts 161°
2026-04-22 07:22 15.27722 108.58271 20686 ft 429 kts 161°
2026-04-22 07:22 15.24884 108.59268 20994 ft 431 kts 161°
2026-04-22 07:23 15.22039 108.60263 21284 ft 433 kts 161°
2026-04-22 07:23 15.19168 108.61266 21567 ft 435 kts 160°
2026-04-22 07:23 15.16298 108.62272 21852 ft 436 kts 160°
2026-04-22 07:23 15.13449 108.63272 22111 ft 439 kts 160°
2026-04-22 07:24 15.10548 108.64289 22378 ft 441 kts 160°
2026-04-22 07:24 15.07634 108.65310 22665 ft 443 kts 159°
2026-04-22 07:24 15.04693 108.66339 22931 ft 446 kts 160°
2026-04-22 07:24 15.01745 108.67370 23221 ft 447 kts 159°
2026-04-22 07:25 14.98778 108.68406 23483 ft 449 kts 160°
2026-04-22 07:25 14.95844 108.69431 23709 ft 451 kts 159°
2026-04-22 07:25 14.92856 108.70476 23928 ft 452 kts 160°
2026-04-22 07:25 14.89868 108.71521 24142 ft 454 kts 160°
2026-04-22 07:26 14.86861 108.72572 24355 ft 456 kts 159°
2026-04-22 07:26 14.83847 108.73625 24584 ft 458 kts 160°
2026-04-22 07:26 14.80863 108.74666 24823 ft 459 kts 160°
2026-04-22 07:26 14.77829 108.75726 25053 ft 460 kts 160°
2026-04-22 07:27 14.74786 108.76789 25264 ft 462 kts 160°
2026-04-22 07:27 14.71737 108.77852 25472 ft 464 kts 160°
2026-04-22 07:27 14.68674 108.78917 25693 ft 465 kts 159°
2026-04-22 07:27 14.67634 108.79278 25755 ft 466 kts 159°
2026-04-22 07:28 14.59390 108.82149 26296 ft 471 kts 159°
2026-04-22 07:28 14.56313 108.83218 26535 ft 472 kts 159°
2026-04-22 07:28 14.53197 108.84301 26721 ft 474 kts 159°
2026-04-22 07:29 14.51123 108.85023 26862 ft 475 kts 160°
2026-04-22 07:29 14.44354 108.87381 27240 ft 479 kts 159°
2026-04-22 07:29 14.41178 108.88488 27438 ft 481 kts 159°
2026-04-22 07:30 14.38003 108.89594 27611 ft 483 kts 159°
2026-04-22 07:30 14.34809 108.90707 27820 ft 484 kts 159°
2026-04-22 07:30 14.31656 108.91805 28055 ft 484 kts 160°
2026-04-22 07:30 14.28458 108.92919 28262 ft 486 kts 159°
2026-04-22 07:31 14.25243 108.94035 28435 ft 488 kts 159°
2026-04-22 07:31 14.22019 108.95151 28601 ft 490 kts 160°
2026-04-22 07:31 14.18787 108.96272 28805 ft 491 kts 160°
2026-04-22 07:31 14.15545 108.97396 29028 ft 491 kts 160°
2026-04-22 07:32 14.12311 108.98517 29300 ft 490 kts 159°
2026-04-22 07:32 14.10175 108.99257 29480 ft 489 kts 159°
2026-04-22 07:32 14.02260 109.02692 30095 ft 483 kts 142°
2026-04-22 07:33 13.99761 109.04972 30299 ft 478 kts 129°
2026-04-22 07:33 13.98409 109.06761 30437 ft 475 kts 120°
2026-04-22 07:33 13.96541 109.10788 30703 ft 468 kts 104°
2026-04-22 07:33 13.95912 109.14056 30910 ft 464 kts 92°
2026-04-22 07:34 13.95855 109.15171 30975 ft 463 kts 88°
2026-04-22 07:34 13.95965 109.23894 31523 ft 462 kts 87°
2026-04-22 07:34 13.96001 109.27194 31761 ft 461 kts 87°
2026-04-22 07:35 13.96032 109.30460 31992 ft 461 kts 87°
2026-04-22 07:35 13.96062 109.33755 32227 ft 460 kts 87°
2026-04-22 07:35 13.96094 109.37044 32475 ft 459 kts 87°
2026-04-22 07:35 13.96128 109.40337 32716 ft 459 kts 87°
2026-04-22 07:36 13.96161 109.43617 32960 ft 458 kts 87°
2026-04-22 07:36 13.96196 109.46898 33204 ft 457 kts 87°
2026-04-22 07:36 13.96230 109.50138 33411 ft 457 kts 87°
2026-04-22 07:36 13.96266 109.53413 33633 ft 457 kts 87°
2026-04-22 07:37 13.96299 109.56685 33857 ft 457 kts 87°
2026-04-22 07:37 13.96330 109.59961 34054 ft 456 kts 87°
2026-04-22 07:37 13.96360 109.63240 34254 ft 456 kts 87°
2026-04-22 07:37 13.96387 109.66502 34448 ft 456 kts 87°
2026-04-22 07:38 13.96414 109.69763 34638 ft 455 kts 87°
2026-04-22 07:38 13.96441 109.72982 34786 ft 456 kts 87°
2026-04-22 07:38 13.96503 109.79482 34832 ft 452 kts 87°
2026-04-22 07:39 13.96563 109.85961 34835 ft 452 kts 88°
2026-04-22 07:39 13.96610 109.92439 34835 ft 452 kts 88°
2026-04-22 07:40 13.96653 109.97828 34838 ft 452 kts 88°
2026-04-22 07:40 13.96711 110.04309 34839 ft 452 kts 88°
2026-04-22 07:41 13.96778 110.10745 34848 ft 452 kts 88°
2026-04-22 07:41 13.96851 110.17226 34848 ft 452 kts 88°
2026-04-22 07:42 13.96917 110.23710 34849 ft 453 kts 88°
2026-04-22 07:42 13.96979 110.30199 34851 ft 453 kts 88°
2026-04-22 07:43 13.97037 110.36651 34853 ft 453 kts 88°
2026-04-22 07:43 13.97099 110.43146 34855 ft 453 kts 88°
2026-04-22 07:44 13.97156 110.49637 34860 ft 453 kts 88°
2026-04-22 07:44 13.97218 110.56101 34858 ft 453 kts 88°
2026-04-22 07:45 13.97269 110.62607 34857 ft 454 kts 88°
2026-04-22 07:45 13.97312 110.69105 34856 ft 453 kts 88°
2026-04-22 07:46 13.97362 110.75602 34861 ft 453 kts 88°
2026-04-22 07:46 13.97412 110.82055 34861 ft 454 kts 88°
2026-04-22 07:47 13.97464 110.88572 34862 ft 454 kts 88°
2026-04-22 07:47 13.97513 110.95085 34861 ft 455 kts 88°
2026-04-22 07:48 13.97564 111.01560 34860 ft 455 kts 88°
2026-04-22 07:48 13.97604 111.08086 34864 ft 455 kts 88°
2026-04-22 07:49 13.97638 111.14568 34865 ft 455 kts 88°
2026-04-22 07:49 13.97677 111.21083 34858 ft 455 kts 88°
2026-04-22 07:50 13.97717 111.27607 34856 ft 455 kts 88°
2026-04-22 07:50 13.97750 111.34147 34853 ft 456 kts 88°
2026-04-22 07:51 13.97783 111.40638 34853 ft 456 kts 88°
2026-04-22 07:51 13.97815 111.47186 34857 ft 456 kts 88°
2026-04-22 07:52 13.97850 111.53678 34862 ft 456 kts 88°
2026-04-22 07:52 13.97876 111.60220 34865 ft 457 kts 88°
2026-04-22 07:53 13.97899 111.66763 34866 ft 457 kts 88°
2026-04-22 07:53 13.97917 111.73310 34868 ft 456 kts 88°
2026-04-22 07:54 13.97936 111.79804 34870 ft 456 kts 88°
2026-04-22 07:54 13.97950 111.86346 34859 ft 456 kts 88°
2026-04-22 07:55 13.97975 111.92902 34856 ft 457 kts 88°
2026-04-22 07:55 13.97994 111.99411 34857 ft 457 kts 88°
2026-04-22 07:56 13.98005 112.05956 34860 ft 457 kts 88°
2026-04-22 07:56 13.98014 112.12507 34859 ft 457 kts 88°
2026-04-22 07:57 13.98020 112.19067 34853 ft 457 kts 89°
2026-04-22 07:57 13.98028 112.25600 34853 ft 458 kts 89°
2026-04-22 07:58 13.98042 112.32169 34855 ft 458 kts 89°
2026-04-22 07:58 13.98052 112.38695 34851 ft 458 kts 89°
2026-04-22 07:59 13.98060 112.45271 34858 ft 458 kts 89°
2026-04-22 07:59 13.98062 112.51844 34852 ft 459 kts 89°
2026-04-22 08:00 13.98057 112.58385 34856 ft 460 kts 89°
2026-04-22 08:00 13.98053 112.64973 34853 ft 460 kts 89°
2026-04-22 08:01 13.98044 112.71567 34860 ft 461 kts 89°
2026-04-22 08:01 13.98041 112.78161 34865 ft 461 kts 89°
2026-04-22 08:02 13.98035 112.84758 34857 ft 461 kts 89°
2026-04-22 08:02 13.98028 112.91365 34858 ft 461 kts 89°
2026-04-22 08:03 13.98022 112.97968 34859 ft 461 kts 89°
2026-04-22 08:03 13.98008 113.04541 34860 ft 462 kts 89°
2026-04-22 08:04 13.97984 113.11155 34858 ft 462 kts 89°
2026-04-22 08:04 13.97966 113.17771 34861 ft 462 kts 89°
2026-04-22 08:05 13.97952 113.24349 34861 ft 462 kts 89°
2026-04-22 08:05 13.97939 113.30966 34862 ft 462 kts 89°
2026-04-22 08:06 13.97912 113.37583 34864 ft 462 kts 89°
2026-04-22 08:06 13.97888 113.44191 34864 ft 462 kts 89°
2026-04-22 08:07 13.97870 113.50809 34860 ft 462 kts 89°
2026-04-22 08:07 13.97848 113.57406 34860 ft 462 kts 90°
2026-04-22 08:08 13.97817 113.64026 34861 ft 463 kts 90°
2026-04-22 08:08 13.97781 113.70651 34863 ft 463 kts 90°
2026-04-22 08:09 13.97753 113.77281 34863 ft 463 kts 90°
2026-04-22 08:09 13.97723 113.83874 34862 ft 463 kts 89°
2026-04-22 08:10 13.97689 113.90512 34862 ft 463 kts 89°
2026-04-22 08:10 13.97653 113.97153 34865 ft 463 kts 90°
2026-04-22 08:11 13.97613 114.03755 34868 ft 464 kts 90°
2026-04-22 08:11 13.97569 114.10398 34871 ft 464 kts 90°
2026-04-22 08:12 13.97523 114.17042 34869 ft 464 kts 90°
2026-04-22 08:12 13.97488 114.23684 34871 ft 464 kts 89°
2026-04-22 08:13 13.97445 114.30287 34872 ft 464 kts 90°
2026-04-22 08:13 13.97392 114.36931 34872 ft 464 kts 90°
2026-04-22 08:14 13.97335 114.43575 34874 ft 464 kts 90°
2026-04-22 08:14 13.97824 114.50190 34874 ft 463 kts 84°
2026-04-22 08:15 13.98461 114.56753 34871 ft 463 kts 84°
2026-04-22 08:15 13.99077 114.63362 34873 ft 463 kts 84°
2026-04-22 08:16 13.99690 114.69979 34875 ft 463 kts 84°
2026-04-22 08:16 14.00308 114.76535 34874 ft 463 kts 84°
2026-04-22 08:17 14.00935 114.83146 34875 ft 463 kts 84°
2026-04-22 08:17 14.01558 114.89759 34876 ft 464 kts 84°
2026-04-22 08:18 14.02176 114.96366 34874 ft 464 kts 84°
2026-04-22 08:18 14.02793 115.02979 34875 ft 464 kts 84°
2026-04-22 08:19 14.03406 115.09588 34878 ft 464 kts 84°
2026-04-22 08:19 14.04008 115.16157 34877 ft 464 kts 84°
2026-04-22 08:20 14.04616 115.22766 34876 ft 464 kts 84°
2026-04-22 08:20 14.05225 115.29382 34875 ft 464 kts 84°
2026-04-22 08:21 14.05828 115.35999 34877 ft 464 kts 84°
2026-04-22 08:21 14.06433 115.42576 34877 ft 463 kts 84°
2026-04-22 08:22 14.07030 115.49184 34877 ft 463 kts 84°
2026-04-22 08:22 14.07622 115.55806 34877 ft 463 kts 84°
2026-04-22 08:23 14.08226 115.62386 34877 ft 463 kts 84°
2026-04-22 08:23 14.08833 115.68997 34876 ft 463 kts 84°
2026-04-22 08:24 14.09418 115.75607 34875 ft 463 kts 85°
2026-04-22 08:24 14.10008 115.82232 34874 ft 464 kts 84°
2026-04-22 08:25 14.10603 115.88851 34874 ft 464 kts 84°
2026-04-22 08:25 14.11187 115.95430 34875 ft 464 kts 85°
2026-04-22 08:26 14.11770 116.02050 34870 ft 464 kts 85°
2026-04-22 08:26 14.12357 116.08680 34870 ft 464 kts 84°
2026-04-22 08:27 14.12942 116.15271 34870 ft 464 kts 84°
2026-04-22 08:27 14.13530 116.21910 34871 ft 464 kts 84°
2026-04-22 08:28 14.14108 116.28533 34868 ft 464 kts 85°
2026-04-22 08:28 14.14683 116.35159 34867 ft 464 kts 84°
2026-04-22 08:29 14.15261 116.41788 34868 ft 465 kts 85°
2026-04-22 08:29 14.15841 116.48378 34868 ft 465 kts 84°
2026-04-22 08:30 14.16425 116.55015 34870 ft 465 kts 85°
2026-04-22 08:30 14.16991 116.61662 34867 ft 465 kts 85°
2026-04-22 08:31 14.17551 116.68299 34866 ft 465 kts 85°
2026-04-22 08:32 14.18401 116.78263 34867 ft 465 kts 85°
2026-04-22 08:32 14.18971 116.84869 34866 ft 465 kts 85°
2026-04-22 08:33 14.19466 116.91523 34863 ft 465 kts 91°
2026-04-22 08:33 14.18899 116.98166 34867 ft 465 kts 96°
2026-04-22 08:34 14.18228 117.04800 34868 ft 465 kts 96°
2026-04-22 08:34 14.17577 117.11393 34868 ft 465 kts 96°
2026-04-22 08:35 14.16909 117.18035 34866 ft 465 kts 96°
2026-04-22 08:35 14.16231 117.24670 34860 ft 465 kts 96°
2026-04-22 08:36 14.15560 117.31272 34859 ft 466 kts 96°
2026-04-22 08:36 14.14882 117.37908 34861 ft 466 kts 96°
2026-04-22 08:37 14.14201 117.44552 34864 ft 466 kts 96°
2026-04-22 08:37 14.13637 117.50074 34864 ft 466 kts 96°
2026-04-22 08:38 14.12946 117.56723 34864 ft 466 kts 96°
2026-04-22 08:38 14.12251 117.63378 34865 ft 467 kts 96°
2026-04-22 08:39 14.11567 117.69992 34866 ft 467 kts 96°
2026-04-22 08:39 14.10885 117.76648 34867 ft 467 kts 96°
2026-04-22 08:40 14.10199 117.83305 34868 ft 467 kts 96°
2026-04-22 08:40 14.09503 117.89921 34870 ft 467 kts 96°
2026-04-22 08:41 14.08796 117.96583 34872 ft 467 kts 96°
2026-04-22 08:41 14.08100 118.03239 34872 ft 467 kts 96°
2026-04-22 08:42 14.07404 118.09895 34868 ft 467 kts 96°
2026-04-22 08:42 14.06704 118.16519 34868 ft 467 kts 96°
2026-04-22 08:43 14.06001 118.23179 34867 ft 467 kts 96°
2026-04-22 08:43 14.05299 118.29843 34869 ft 468 kts 96°
2026-04-22 08:44 14.04594 118.36506 34867 ft 468 kts 96°
2026-04-22 08:44 14.03888 118.43127 34865 ft 468 kts 97°
2026-04-22 08:45 14.03172 118.49783 34869 ft 468 kts 97°
2026-04-22 08:45 14.02459 118.56455 34867 ft 468 kts 97°
2026-04-22 08:46 14.01749 118.63071 34869 ft 468 kts 97°
2026-04-22 08:46 14.01040 118.69728 34864 ft 468 kts 97°
2026-04-22 08:47 14.00322 118.76399 34862 ft 468 kts 97°
2026-04-22 08:47 13.99592 118.83063 34865 ft 468 kts 97°
2026-04-22 08:48 13.98870 118.89680 34867 ft 468 kts 97°
2026-04-22 08:48 13.98149 118.96345 34866 ft 468 kts 97°
2026-04-22 08:49 13.97427 119.03004 34863 ft 468 kts 97°
2026-04-22 08:49 13.96695 119.09665 34863 ft 468 kts 97°
2026-04-22 08:50 13.95964 119.16321 34860 ft 468 kts 97°
2026-04-22 08:50 13.95229 119.22990 34862 ft 468 kts 97°
2026-04-22 08:51 13.94491 119.29657 34860 ft 468 kts 97°
2026-04-22 08:51 13.93759 119.36278 34858 ft 468 kts 97°
2026-04-22 08:52 13.93027 119.42955 34857 ft 469 kts 97°
2026-04-22 08:52 13.92286 119.49623 34853 ft 469 kts 97°
2026-04-22 08:53 13.91539 119.56256 34825 ft 468 kts 97°
2026-04-22 08:53 13.91167 119.59580 34260 ft 468 kts 97°
2026-04-22 08:53 13.90795 119.62913 33588 ft 469 kts 97°
2026-04-22 08:53 13.90423 119.66253 32870 ft 470 kts 97°
2026-04-22 08:54 13.90052 119.69608 32151 ft 471 kts 97°
2026-04-22 08:54 13.89678 119.72965 31442 ft 473 kts 97°
2026-04-22 08:54 13.89300 119.76344 30760 ft 474 kts 97°
2026-04-22 08:54 13.88925 119.79699 30272 ft 469 kts 97°
2026-04-22 08:55 13.88553 119.83017 29747 ft 465 kts 97°
2026-04-22 08:55 13.88185 119.86272 29176 ft 462 kts 97°
2026-04-22 08:55 13.87807 119.89581 28610 ft 458 kts 97°
2026-04-22 08:55 13.87441 119.92784 28047 ft 455 kts 97°
2026-04-22 08:56 13.87075 119.96013 27487 ft 451 kts 97°
2026-04-22 08:56 13.86711 119.99215 26939 ft 448 kts 97°
2026-04-22 08:56 13.86354 120.02368 26657 ft 438 kts 97°
2026-04-22 08:56 13.86261 120.05451 26531 ft 424 kts 83°
2026-04-22 08:57 13.86969 120.08332 26403 ft 409 kts 65°
2026-04-22 08:57 13.88395 120.10805 26237 ft 396 kts 49°
2026-04-22 08:57 13.90372 120.12722 25899 ft 388 kts 32°
2026-04-22 08:57 13.92740 120.14010 25495 ft 383 kts 21°
2026-04-22 08:58 13.95153 120.15076 25070 ft 381 kts 22°
2026-04-22 08:58 13.97585 120.16164 24651 ft 379 kts 22°
2026-04-22 08:58 13.99982 120.17246 24081 ft 375 kts 22°
2026-04-22 08:58 14.02368 120.18328 23485 ft 373 kts 22°
2026-04-22 08:59 14.04733 120.19400 22816 ft 370 kts 22°
2026-04-22 08:59 14.07086 120.20465 22168 ft 366 kts 22°
2026-04-22 08:59 14.09406 120.21513 21557 ft 362 kts 22°
2026-04-22 08:59 14.11667 120.22540 20971 ft 357 kts 22°
2026-04-22 09:00 14.13934 120.23568 20385 ft 353 kts 22°
2026-04-22 09:00 14.16177 120.24582 19808 ft 349 kts 22°
2026-04-22 09:00 14.18393 120.25579 19247 ft 346 kts 22°
2026-04-22 09:00 14.20583 120.26567 18705 ft 342 kts 23°
2026-04-22 09:01 14.22753 120.27548 18184 ft 338 kts 23°
2026-04-22 09:01 14.24893 120.28512 17604 ft 334 kts 23°
2026-04-22 09:01 14.27014 120.29467 17027 ft 331 kts 23°
2026-04-22 09:01 14.29095 120.30409 16659 ft 329 kts 24°
2026-04-22 09:02 14.31179 120.31355 16300 ft 326 kts 24°
2026-04-22 09:02 14.33257 120.32297 15948 ft 323 kts 24°
2026-04-22 09:02 14.35310 120.33225 15589 ft 321 kts 24°
2026-04-22 09:02 14.37350 120.34148 15219 ft 320 kts 24°
2026-04-22 09:03 14.39386 120.35068 14883 ft 317 kts 24°
2026-04-22 09:03 14.41371 120.35965 14562 ft 315 kts 24°
2026-04-22 09:03 14.43265 120.37087 14213 ft 313 kts 38°
2026-04-22 09:03 14.44824 120.38646 13874 ft 311 kts 51°
2026-04-22 09:04 14.45991 120.40517 13521 ft 310 kts 59°
2026-04-22 09:04 14.47066 120.42452 13109 ft 309 kts 59°
2026-04-22 09:04 14.48125 120.44346 12746 ft 307 kts 59°
2026-04-22 09:04 14.49205 120.46269 12408 ft 304 kts 60°
2026-04-22 09:05 14.50249 120.48126 12076 ft 302 kts 60°
2026-04-22 09:05 14.51308 120.50018 11732 ft 299 kts 60°
2026-04-22 09:05 14.52326 120.51844 11377 ft 294 kts 60°
2026-04-22 09:05 14.53342 120.53665 10855 ft 291 kts 60°
2026-04-22 09:06 14.54350 120.55471 10326 ft 290 kts 60°
2026-04-22 09:06 14.55349 120.57261 9832 ft 286 kts 60°
2026-04-22 09:06 14.56338 120.59034 9296 ft 283 kts 60°
2026-04-22 09:06 14.57314 120.60783 8720 ft 281 kts 60°
2026-04-22 09:07 14.58288 120.62528 8159 ft 278 kts 60°
2026-04-22 09:07 14.59242 120.64240 7824 ft 268 kts 60°
2026-04-22 09:07 14.60108 120.65859 7553 ft 255 kts 68°
2026-04-22 09:07 14.60370 120.67619 7228 ft 246 kts 97°
2026-04-22 09:08 14.59792 120.69251 7010 ft 242 kts 124°
2026-04-22 09:08 14.58547 120.70396 6728 ft 242 kts 148°
2026-04-22 09:08 14.57077 120.71253 6420 ft 243 kts 149°
2026-04-22 09:08 14.55605 120.72106 6115 ft 242 kts 148°
2026-04-22 09:09 14.54144 120.72953 5815 ft 240 kts 149°
2026-04-22 09:09 14.52693 120.73796 5506 ft 239 kts 149°
2026-04-22 09:09 14.51269 120.74627 5299 ft 231 kts 148°
2026-04-22 09:09 14.49891 120.75437 5048 ft 224 kts 148°
2026-04-22 09:10 14.48549 120.76230 4805 ft 220 kts 148°
2026-04-22 09:10 14.47242 120.77005 4572 ft 219 kts 147°
2026-04-22 09:10 14.45928 120.77786 4336 ft 217 kts 148°
2026-04-22 09:10 14.44625 120.78560 4118 ft 215 kts 149°
2026-04-22 09:11 14.43327 120.79327 3900 ft 214 kts 149°
2026-04-22 09:11 14.42037 120.80089 3700 ft 213 kts 149°
2026-04-22 09:11 14.40846 120.80972 3581 ft 212 kts 127°
2026-04-22 09:11 14.40338 120.82368 3460 ft 211 kts 91°
2026-04-22 09:12 14.40722 120.83757 3382 ft 196 kts 63°
2026-04-22 09:12 14.41391 120.84948 3175 ft 189 kts 62°
2026-04-22 09:12 14.42049 120.86113 2948 ft 187 kts 62°
2026-04-22 09:12 14.42698 120.87274 2716 ft 186 kts 62°
2026-04-22 09:13 14.43335 120.88417 2481 ft 183 kts 62°
2026-04-22 09:13 14.43944 120.89508 2256 ft 169 kts 64°
2026-04-22 09:13 14.44521 120.90544 2051 ft 160 kts 64°
2026-04-22 09:13 14.45056 120.91505 1833 ft 151 kts 64°
2026-04-22 09:14 14.45570 120.92429 1659 ft 147 kts 65°
2026-04-22 09:14 14.46075 120.93338 1469 ft 145 kts 66°
2026-04-22 09:14 14.46573 120.94233 1280 ft 143 kts 66°
2026-04-22 09:14 14.47066 120.95121 1096 ft 143 kts 64°
2026-04-22 09:15 14.47563 120.96015 918 ft 144 kts 65°
2026-04-22 09:15 14.48052 120.96908 784 ft 142 kts 66°
2026-04-22 09:15 14.48539 120.97802 591 ft 141 kts 63°
2026-04-22 09:15 14.49047 120.98671 391 ft 140 kts 64°
2026-04-22 09:16 14.49543 120.99557 217 ft 144 kts 65°
2026-04-22 09:16 14.50035 121.00458 81 ft 142 kts 65°
2026-04-22 09:16 14.50472 121.01242 63 ft 99 kts 60°
2026-04-22 09:16 14.50723 121.01698 66 ft 50 kts 60°
2026-04-22 09:17 14.50851 121.01925 66 ft 33 kts 60°
2026-04-22 09:17 14.50920 121.02040 66 ft 15 kts 62°
2026-04-22 09:17 14.50994 121.02180 67 ft 28 kts 58°
2026-04-22 09:17 14.51128 121.02295 68 ft 18 kts 32°
2026-04-22 09:18 14.51187 121.02252 65 ft 12 kts 253°
2026-04-22 09:18 14.51181 121.02239 66 ft 0 kts 240°
2026-04-22 09:18 14.51165 121.02211 65 ft 9 kts 240°
2026-04-22 09:19 14.51133 121.02153 65 ft 9 kts 240°
2026-04-22 09:19 14.51085 121.02068 63 ft 18 kts 240°
2026-04-22 09:19 14.51079 121.01976 62 ft 12 kts 307°
2026-04-22 09:19 14.51137 121.01918 69 ft 11 kts 315°
2026-04-22 09:20 14.51189 121.01865 62 ft 10 kts 315°
2026-04-22 09:20 14.51235 121.01817 63 ft 10 kts 315°
2026-04-22 09:20 14.51308 121.01743 60 ft 17 kts 315°
2026-04-22 09:20 14.51386 121.01662 62 ft 15 kts 315°
2026-04-22 09:21 14.51457 121.01589 63 ft 14 kts 315°
2026-04-22 09:21 14.51520 121.01524 64 ft 12 kts 315°
2026-04-22 09:21 14.51601 121.01440 62 ft 20 kts 315°
2026-04-22 09:21 14.51698 121.01340 69 ft 19 kts 315°
2026-04-22 09:22 14.51789 121.01248 62 ft 18 kts 315°
2026-04-22 09:22 14.51861 121.01172 65 ft 11 kts 314°
2026-04-22 09:22 14.51909 121.01122 62 ft 9 kts 315°
2026-04-22 09:22 14.51951 121.01079 63 ft 8 kts 315°
2026-04-22 09:23 14.51988 121.01042 66 ft 7 kts 315°
2026-04-22 09:23 14.52021 121.01017 61 ft 5 kts 356°
2026-04-22 09:23 14.52044 121.01033 64 ft 3 kts 45°
2026-04-22 09:23 14.52058 121.01047 64 ft 2 kts 44°
2026-04-22 09:24 14.52068 121.01057 59 ft 2 kts 44°
2026-04-22 09:24 14.52079 121.01068 69 ft 4 kts 45°
2026-04-22 09:24 14.52093 121.01083 66 ft 1 kts 44°
2026-04-22 09:24 14.52096 121.01086 68 ft 0 kts 44°